ALSAT 1 1 27559U 02054A 09185.42450552 -.00000006 00000-0 72578-5 0 5008 2 27559 97.9398 59.8096 0022498 304.3127 55.5950 14.69323320352256 NIGERIASAT 1 1 27941U 03042C 09185.44936791 .00000067 00000-0 21891-4 0 5767 2 27941 97.9436 59.5495 0012903 83.7339 276.5334 14.63023018308063 UK-DMC 1 27942U 03042D 09185.41349573 .00000018 00000-0 12400-4 0 5684 2 27942 97.9416 59.2681 0012512 91.0167 269.2477 14.63019675308053 BILSAT 1 1 27943U 03042E 09185.46495620 -.00000026 00000-0 38582-5 0 4156 2 27943 97.9404 59.0758 0012957 81.2804 278.9862 14.62909571308053 BEIJING 1 1 28890U 05043A 09185.49056027 -.00000021 00000-0 51493-5 0 2944 2 28890 98.0502 75.5740 0014446 294.4077 65.5614 14.60062940196435 HJ-1A 1 33320U 08041A 09185.42517631 .00000050 00000-0 14926-4 0 9199 2 33320 97.9814 260.7803 0025592 28.8194 331.4421 14.75154996 44436 HJ-1B 1 33321U 08041B 09185.45868682 .00000034 00000-0 12683-4 0 9468 2 33321 97.9830 260.7965 0044147 39.4357 321.0051 14.75159800 44422 YAOGAN 4 1 33446U 08061A 09185.38631559 -.00000347 00000-0 -43353-4 0 6656 2 33446 97.9032 265.9662 0013461 338.6270 21.4375 14.75691296 31738 YAOGAN 5 1 33456U 08064A 09185.52079134 .00000483 00000-0 22308-4 0 6466 2 33456 97.3741 260.3294 0004544 332.6084 123.2512 15.24849080 30698